Time,TemperatureF,DewpointF,PressureIn,WindDirection,WindDirectionDegrees,WindSpeedMPH,WindSpeedGustMPH,Humidity,HourlyPrecipIn,Conditions,Clouds,dailyrainin,SoftwareType,DateUTC
2013-05-11 00:13:00,72.9,64.0,29.95,East,90,0.0,-999.0,73,-99.99,,,0.00,weatherlink.com 1.10,2013-05-11 04:13:00,
2013-05-11 00:26:00,72.9,64.0,29.95,East,90,0.0,-999.0,74,-99.99,,,0.00,weatherlink.com 1.10,2013-05-11 04:26:00,
2013-05-11 00:41:00,72.8,64.0,29.94,East,90,0.0,-999.0,74,-99.99,,,0.00,weatherlink.com 1.10,2013-05-11 04:41:00,
2013-05-11 01:12:00,72.7,64.0,29.93,East,90,0.0,-999.0,74,-99.99,,,0.00,weatherlink.com 1.10,2013-05-11 05:12:00,
2013-05-11 01:26:00,72.7,64.0,29.94,East,90,0.0,-999.0,75,-99.99,,,0.00,weatherlink.com 1.10,2013-05-11 05:26:00,
2013-05-11 01:41:00,72.6,64.0,29.95,East,90,0.0,-999.0,75,-99.99,,,0.00,weatherlink.com 1.10,2013-05-11 05:41:00,
2013-05-11 02:12:00,72.6,64.0,29.94,East,90,0.0,-999.0,75,-99.99,,,0.00,weatherlink.com 1.10,2013-05-11 06:12:00,
2013-05-11 02:26:00,72.0,64.0,29.93,East,90,0.0,-999.0,77,-99.99,,,0.00,weatherlink.com 1.10,2013-05-11 06:26:00,
2013-05-11 02:41:00,71.7,64.0,29.93,East,90,0.0,-999.0,77,-99.99,,,0.00,weatherlink.com 1.10,2013-05-11 06:41:00,
2013-05-11 03:12:00,71.7,64.0,29.93,East,90,0.0,-999.0,77,-99.99,,,0.00,weatherlink.com 1.10,2013-05-11 07:12:00,
2013-05-11 03:26:00,71.3,63.0,29.92,East,90,0.0,-999.0,76,-99.99,,,0.00,weatherlink.com 1.10,2013-05-11 07:26:00,
2013-05-11 03:41:00,71.2,63.0,29.92,East,90,0.0,-999.0,76,-99.99,,,0.00,weatherlink.com 1.10,2013-05-11 07:41:00,
2013-05-11 04:12:00,70.9,63.0,29.91,East,90,0.0,-999.0,76,-99.99,,,0.00,weatherlink.com 1.10,2013-05-11 08:12:00,
2013-05-11 04:26:00,70.6,63.0,29.91,East,90,0.0,-999.0,76,-99.99,,,0.00,weatherlink.com 1.10,2013-05-11 08:26:00,
2013-05-11 04:41:00,70.3,63.0,29.91,East,90,0.0,-999.0,77,-99.99,,,0.00,weatherlink.com 1.10,2013-05-11 08:41:00,
2013-05-11 05:12:00,69.5,62.0,29.91,East,90,0.0,-999.0,76,-99.99,,,0.00,weatherlink.com 1.10,2013-05-11 09:12:00,
2013-05-11 05:26:00,69.2,62.0,29.91,East,90,0.0,-999.0,77,-99.99,,,0.00,weatherlink.com 1.10,2013-05-11 09:26:00,
2013-05-11 05:41:00,68.9,61.0,29.91,East,90,0.0,-999.0,76,-99.99,,,0.00,weatherlink.com 1.10,2013-05-11 09:41:00,
2013-05-11 06:12:00,68.9,61.0,29.90,East,90,0.0,-999.0,76,-99.99,,,0.00,weatherlink.com 1.10,2013-05-11 10:12:00,
2013-05-11 06:26:00,68.5,61.0,29.91,East,90,1.0,-999.0,76,-99.99,,,0.00,weatherlink.com 1.10,2013-05-11 10:26:00,
2013-05-11 06:41:00,68.4,61.0,29.91,East,90,0.0,-999.0,76,-99.99,,,0.00,weatherlink.com 1.10,2013-05-11 10:41:00,
2013-05-11 07:12:00,68.3,60.0,29.91,East,90,0.0,-999.0,76,-99.99,,,0.00,weatherlink.com 1.10,2013-05-11 11:12:00,
2013-05-11 07:26:00,67.9,61.0,29.91,East,90,0.0,-999.0,78,-99.99,,,0.00,weatherlink.com 1.10,2013-05-11 11:26:00,
2013-05-11 07:41:00,68.0,61.0,29.91,East,90,0.0,-999.0,78,-99.99,,,0.00,weatherlink.com 1.10,2013-05-11 11:41:00,
2013-05-11 08:12:00,68.1,61.0,29.91,East,90,0.0,-999.0,79,-99.99,,,0.00,weatherlink.com 1.10,2013-05-11 12:12:00,
2013-05-11 08:26:00,68.8,62.0,29.91,East,90,0.0,-999.0,79,-99.99,,,0.00,weatherlink.com 1.10,2013-05-11 12:26:00,
2013-05-11 08:41:00,69.0,62.0,29.91,East,90,0.0,-999.0,79,-99.99,,,0.00,weatherlink.com 1.10,2013-05-11 12:41:00,
2013-05-11 09:12:00,69.2,62.0,29.91,East,90,0.0,-999.0,79,-99.99,,,0.00,weatherlink.com 1.10,2013-05-11 13:12:00,
2013-05-11 09:26:00,70.8,63.0,29.90,East,82,0.0,-999.0,76,-99.99,,,0.00,weatherlink.com 1.10,2013-05-11 13:26:00,
2013-05-11 09:41:00,71.7,63.0,29.89,East,82,1.0,-999.0,75,-99.99,,,0.00,weatherlink.com 1.10,2013-05-11 13:41:00,
2013-05-11 10:12:00,73.7,65.0,29.89,East,90,1.0,-999.0,74,-99.99,,,0.00,weatherlink.com 1.10,2013-05-11 14:12:00,
2013-05-11 10:26:00,74.3,64.0,29.89,ENE,77,0.0,-999.0,70,-99.99,,,0.00,weatherlink.com 1.10,2013-05-11 14:26:00,
2013-05-11 10:41:00,75.0,64.0,29.88,East,92,0.0,-999.0,68,-99.99,,,0.00,weatherlink.com 1.10,2013-05-11 14:41:00,
2013-05-11 11:12:00,75.3,64.0,29.88,East,92,0.0,-999.0,68,-99.99,,,0.00,weatherlink.com 1.10,2013-05-11 15:12:00,
2013-05-11 11:26:00,77.3,65.0,29.87,East,96,1.0,-999.0,65,-99.99,,,0.00,weatherlink.com 1.10,2013-05-11 15:26:00,
2013-05-11 11:41:00,78.1,63.0,29.87,East,92,1.0,-999.0,61,-99.99,,,0.00,weatherlink.com 1.10,2013-05-11 15:41:00,
2013-05-11 12:12:00,79.1,65.0,29.86,East,85,1.0,-999.0,62,-99.99,,,0.00,weatherlink.com 1.10,2013-05-11 16:12:00,
2013-05-11 12:26:00,78.9,63.0,29.86,East,86,0.0,-999.0,59,-99.99,,,0.00,weatherlink.com 1.10,2013-05-11 16:26:00,
2013-05-11 12:41:00,79.1,63.0,29.86,SE,127,1.0,-999.0,58,-99.99,,,0.00,weatherlink.com 1.10,2013-05-11 16:41:00,
2013-05-11 13:12:00,79.1,63.0,29.86,East,85,1.0,-999.0,58,-99.99,,,0.00,weatherlink.com 1.10,2013-05-11 17:12:00,
2013-05-11 13:26:00,76.1,65.0,29.85,East,100,1.0,-999.0,69,-99.99,,,0.00,weatherlink.com 1.10,2013-05-11 17:26:00,
2013-05-11 13:41:00,75.2,66.0,29.84,East,100,0.0,-999.0,74,-99.99,,,0.00,weatherlink.com 1.10,2013-05-11 17:41:00,
2013-05-11 14:12:00,75.7,66.0,29.83,East,100,0.0,-999.0,72,-99.99,,,0.00,weatherlink.com 1.10,2013-05-11 18:12:00,
2013-05-11 14:26:00,76.1,69.0,29.83,East,98,0.0,-999.0,79,-99.99,,,0.00,weatherlink.com 1.10,2013-05-11 18:26:00,
2013-05-11 14:41:00,75.6,69.0,29.82,East,98,0.0,-999.0,81,-99.99,,,0.00,weatherlink.com 1.10,2013-05-11 18:41:00,
2013-05-11 15:12:00,75.5,69.0,29.82,East,99,0.0,-999.0,81,-99.99,,,0.00,weatherlink.com 1.10,2013-05-11 19:12:00,
2013-05-11 15:26:00,79.3,66.0,29.80,East,97,0.0,-999.0,63,-99.99,,,0.00,weatherlink.com 1.10,2013-05-11 19:26:00,
2013-05-11 15:41:00,78.9,67.0,29.80,East,98,1.0,-999.0,66,-99.99,,,0.00,weatherlink.com 1.10,2013-05-11 19:41:00,
2013-05-11 16:12:00,78.0,66.0,29.81,SSE,156,0.0,-999.0,66,-99.99,,,0.00,weatherlink.com 1.10,2013-05-11 20:12:00,
2013-05-11 16:26:00,67.8,65.0,29.81,SSE,156,0.0,-999.0,90,-99.99,,,0.19,weatherlink.com 1.10,2013-05-11 20:26:00,
2013-05-11 16:41:00,67.6,66.0,29.80,SSE,156,0.0,-999.0,93,-99.99,,,0.20,weatherlink.com 1.10,2013-05-11 20:41:00,
2013-05-11 17:12:00,67.7,66.0,29.80,SSE,156,0.0,-999.0,94,-99.99,,,0.20,weatherlink.com 1.10,2013-05-11 21:12:00,
2013-05-11 17:26:00,68.0,67.0,29.81,SE,128,0.0,-999.0,95,-99.99,,,0.21,weatherlink.com 1.10,2013-05-11 21:26:00,
2013-05-11 17:41:00,68.1,67.0,29.81,SE,128,0.0,-999.0,95,-99.99,,,0.21,weatherlink.com 1.10,2013-05-11 21:41:00,
2013-05-11 18:11:00,68.2,67.0,29.81,SE,128,0.0,-999.0,96,-99.99,,,0.21,weatherlink.com 1.10,2013-05-11 22:11:00,
2013-05-11 18:26:00,68.8,68.0,29.79,SE,128,0.0,-999.0,96,-99.99,,,0.21,weatherlink.com 1.10,2013-05-11 22:26:00,
2013-05-11 18:41:00,68.9,68.0,29.79,SE,128,0.0,-999.0,96,-99.99,,,0.21,weatherlink.com 1.10,2013-05-11 22:41:00,
2013-05-11 19:11:00,68.9,68.0,29.79,SE,128,0.0,-999.0,96,-99.99,,,0.21,weatherlink.com 1.10,2013-05-11 23:11:00,
2013-05-11 19:25:00,69.3,68.0,29.79,SE,128,0.0,-999.0,96,-99.99,,,0.21,weatherlink.com 1.10,2013-05-11 23:25:00,
2013-05-11 19:40:00,69.2,68.0,29.79,SE,128,0.0,-999.0,96,-99.99,,,0.21,weatherlink.com 1.10,2013-05-11 23:40:00,
2013-05-11 20:11:00,69.1,68.0,29.79,SE,128,0.0,-999.0,96,-99.99,,,0.21,weatherlink.com 1.10,2013-05-12 00:11:00,
2013-05-11 20:25:00,68.4,67.0,29.80,SE,128,0.0,-999.0,96,-99.99,,,0.21,weatherlink.com 1.10,2013-05-12 00:25:00,
2013-05-11 20:40:00,68.3,67.0,29.80,SE,128,0.0,-999.0,96,-99.99,,,0.21,weatherlink.com 1.10,2013-05-12 00:40:00,
2013-05-11 21:11:00,68.3,67.0,29.80,SE,128,0.0,-999.0,96,-99.99,,,0.21,weatherlink.com 1.10,2013-05-12 01:11:00,
2013-05-11 21:25:00,67.9,67.0,29.80,SE,128,0.0,-999.0,96,-99.99,,,0.21,weatherlink.com 1.10,2013-05-12 01:25:00,
2013-05-11 21:40:00,67.6,67.0,29.81,SE,128,0.0,-999.0,96,-99.99,,,0.21,weatherlink.com 1.10,2013-05-12 01:40:00,
2013-05-11 22:11:00,67.6,67.0,29.80,SE,128,0.0,-999.0,96,-99.99,,,0.21,weatherlink.com 1.10,2013-05-12 02:11:00,
2013-05-11 22:25:00,67.5,67.0,29.82,SE,128,0.0,-999.0,97,-99.99,,,0.21,weatherlink.com 1.10,2013-05-12 02:25:00,
2013-05-11 22:40:00,67.6,67.0,29.82,ESE,103,0.0,-999.0,97,-99.99,,,0.21,weatherlink.com 1.10,2013-05-12 02:40:00,
2013-05-11 23:11:00,67.6,67.0,29.82,ESE,103,0.0,-999.0,97,-99.99,,,0.21,weatherlink.com 1.10,2013-05-12 03:11:00,
2013-05-11 23:25:00,67.4,67.0,29.80,ESE,103,0.0,-999.0,97,-99.99,,,0.21,weatherlink.com 1.10,2013-05-12 03:25:00,
2013-05-11 23:40:00,67.2,66.0,29.80,ESE,103,0.0,-999.0,97,-99.99,,,0.21,weatherlink.com 1.10,2013-05-12 03:40:00,